ECMWFFLT1_925_spd_021.txt.gz
Wind_Speed
4 4 5 4 4 5 4 3 3 3 3 3 3 2 2 2 1 1 1 1 1 2 2 3 2 3 3 2 2 3 4 4 3 4 4 4 4 4 5 5 4 5 8 9 6 3 3 4 5 5 7 8 8 9 8 8 9 9 9 9 9 10 11
5 4 4 4 4 4 3 2 2 3 3 3 3 3 3 2 2 1 0 0 1 2 1 2 2 3 4 3 3 2 2 2 1 1 2 3 2 3 4 5 7 8 7 8 9 7 4 3 5 5 6 7 8 8 8 8 8 9 9 9 9 10 10
4 3 4 4 4 3 3 2 2 2 3 3 3 3 3 2 2 1 1 1 1 2 2 2 3 4 5 5 4 4 4 3 3 2 2 3 3 3 4 5 7 8 9 9 8 5 4 4 5 6 7 7 7 7 7 7 8 9 9 9 9 10 10
3 3 3 3 3 3 3 2 1 1 2 3 3 3 2 2 2 2 2 3 3 4 4 4 3 4 5 6 5 5 5 4 4 4 3 4 4 4 3 2 2 3 4 6 8 8 7 5 6 6 8 8 9 8 6 6 7 8 9 9 9 9 9
3 2 3 3 3 3 3 3 2 2 2 3 3 3 2 2 2 3 3 4 5 5 5 4 4 4 4 6 7 6 6 6 6 6 5 4 4 4 3 4 4 5 4 4 6 6 4 7 7 6 8 9 8 9 8 7 8 8 8 9 9 9 9
5 3 3 4 3 3 3 3 3 3 3 4 4 3 2 2 2 3 3 4 5 6 6 6 6 6 5 5 7 7 6 7 7 6 6 6 5 5 4 3 4 5 4 4 3 2 4 7 6 5 8 8 7 8 8 7 8 8 8 8 8 8 9
8 6 5 6 4 3 3 3 3 3 4 4 5 4 3 3 3 3 3 4 5 6 7 7 8 8 7 7 8 8 8 8 8 9 8 7 7 6 4 4 5 6 6 5 3 3 5 6 5 5 7 7 5 7 8 8 7 7 8 8 8 8 8
9 8 7 7 6 5 5 4 3 4 5 5 5 4 3 3 4 4 4 4 5 6 7 8 8 8 8 9 9 9 9 9 9 10 9 8 8 7 6 6 7 7 6 5 3 3 4 5 4 5 6 5 4 4 5 6 7 7 6 7 7 7 6
11 9 7 9 9 7 7 6 5 5 6 6 6 5 4 4 4 4 5 5 5 6 7 7 8 8 8 9 9 8 9 9 9 9 9 9 9 8 8 7 7 8 7 6 5 5 4 4 5 5 5 5 4 4 4 4 5 6 4 5 7 6 6
11 9 9 10 10 9 8 7 6 6 7 7 6 6 5 5 4 5 6 6 6 7 7 7 8 8 8 8 8 8 8 8 9 9 9 9 9 9 8 8 8 9 8 8 8 7 6 6 6 5 3 4 2 2 4 3 3 5 4 4 5 6 5
11 11 11 12 11 10 9 9 8 8 7 7 7 7 7 6 5 5 6 7 8 8 8 8 9 9 9 9 9 8 8 8 9 9 9 9 9 9 8 9 9 9 9 9 9 8 7 6 5 3 1 1 3 5 2 6 4 4 4 4 5 5 4
12 12 12 13 13 11 11 11 10 9 8 8 8 8 8 7 6 6 7 7 8 9 8 8 9 9 9 9 9 9 9 8 9 9 9 9 9 9 9 9 10 10 9 9 9 8 7 6 5 4 3 4 5 7 5 5 4 3 4 3 4 4 3
12 12 13 14 14 12 12 12 11 10 10 10 10 9 8 8 7 7 7 8 8 9 9 9 9 9 10 10 10 10 9 9 10 10 9 9 9 9 9 9 9 8 7 7 8 7 6 6 5 5 5 5 5 6 5 4 4 5 4 3 2 2 2
12 12 13 14 14 13 12 12 11 11 10 10 11 11 9 8 8 8 8 8 8 9 9 9 9 10 10 10 10 10 10 10 10 10 9 9 9 8 8 8 8 7 5 6 6 4 5 5 4 4 4 3 4 3 2 3 5 5 3 1 0 1 1
12 12 13 13 13 13 11 11 12 12 11 10 11 11 10 9 9 9 9 8 9 9 9 9 9 9 10 11 11 10 10 10 10 10 9 9 8 7 7 7 7 5 4 4 2 2 5 4 3 4 2 1 3 1 1 1 2 4 4 1 1 2 1
11 12 12 13 12 11 10 11 12 12 11 10 9 10 10 10 9 9 9 9 9 9 9 9 9 9 10 11 11 10 9 10 10 9 9 9 8 7 7 6 6 5 4 3 1 2 3 1 3 3 3 1 2 2 2 2 2 1 3 3 3 4 4
12 12 12 13 12 10 9 10 11 12 11 10 9 9 9 10 10 9 9 9 9 9 9 9 9 10 11 11 10 10 10 10 10 9 8 8 8 8 7 6 6 5 4 4 2 1 3 1 3 1 3 2 1 2 1 2 3 2 2 2 2 3 2
13 12 12 13 12 10 9 9 10 11 10 10 10 9 9 10 11 10 10 10 10 10 10 10 10 10 10 10 10 10 10 9 9 8 7 7 7 7 7 6 6 6 5 4 3 3 3 2 2 2 3 4 4 4 3 3 3 2 4 4 2 3 5
13 12 12 12 12 10 8 9 10 10 10 10 10 10 10 11 11 11 11 11 11 11 11 11 11 11 10 10 10 10 9 9 8 7 7 7 6 6 6 5 5 5 5 5 4 4 3 3 3 3 3 5 5 2 3 3 4 3 5 6 5 4 5
11 12 12 12 11 10 10 11 11 10 10 11 11 12 12 11 11 12 12 12 12 12 13 13 12 12 12 11 10 10 9 9 8 7 7 6 6 6 5 5 4 5 5 5 6 6 6 5 6 6 6 6 7 5 3 5 6 6 7 7 6 6 7
9 10 11 11 11 11 11 12 12 11 10 11 12 13 13 13 13 12 13 13 13 13 14 13 13 13 13 12 12 11 10 9 8 7 7 6 5 5 4 3 3 4 5 7 7 7 6 6 7 7 7 7 8 7 6 6 6 7 8 8 8 8 8
8 8 9 10 11 12 11 11 11 11 10 11 12 13 13 14 14 14 14 14 14 14 14 14 14 15 14 13 13 12 10 9 7 6 5 4 4 4 4 3 3 5 6 8 9 9 9 8 8 8 8 7 8 8 7 7 7 8 9 10 10 9 8
7 8 8 9 10 11 11 10 11 11 10 11 11 12 13 14 15 16 15 15 15 15 15 15 16 16 16 14 13 12 11 9 7 6 3 1 1 3 3 3 5 7 8 9 11 13 13 12 12 12 12 10 9 9 8 8 9 10 10 11 11 10 9
6 7 7 8 8 9 10 10 10 11 11 11 11 12 14 15 16 16 17 17 17 17 15 16 18 19 18 16 13 11 11 10 10 8 5 7 7 5 5 7 7 7 7 8 9 10 10 9 10 12 13 14 14 12 11 9 9 9 10 11 11 10 9
5 5 5 7 7 7 8 9 10 11 11 12 12 13 15 16 16 16 17 18 18 18 16 19 22 22 21 19 14 10 9 9 9 11 13 15 13 9 9 9 7 8 8 8 8 8 9 9 8 9 11 13 15 16 16 14 9 5 4 6 7 8 8
2 2 3 4 4 5 6 7 9 11 12 13 14 15 16 16 16 16 17 17 18 18 17 21 26 26 23 20 16 12 10 9 10 9 10 13 12 11 11 9 9 10 9 10 9 8 8 8 7 7 9 11 15 18 19 18 15 10 5 3 4 5 5
1 1 1 2 3 4 5 7 8 10 11 13 14 15 16 16 16 16 16 16 16 16 16 19 25 25 23 20 19 16 12 11 12 11 11 12 12 12 11 9 9 9 8 7 7 6 7 7 6 6 7 9 12 14 15 14 13 12 10 6 4 4 2
2 2 3 4 5 6 6 7 8 9 10 11 13 15 17 18 18 17 18 17 18 18 17 18 22 24 23 22 22 20 16 14 14 14 13 13 13 12 9 8 8 8 7 7 7 8 7 5 4 5 6 7 6 6 9 9 7 7 6 4 3 2 1
4 3 4 4 6 7 7 8 9 9 10 11 12 14 17 20 21 20 21 21 21 21 20 20 24 27 26 25 25 23 19 15 14 14 13 12 12 10 8 7 7 7 7 6 6 8 10 7 5 6 8 9 7 7 9 10 9 9 7 6 6 5 6
5 5 5 5 6 6 6 7 8 9 11 12 12 13 15 18 19 20 21 23 22 21 21 22 25 26 23 23 25 26 21 17 16 15 15 13 12 11 10 9 8 8 7 6 6 8 11 10 7 7 9 8 7 6 7 9 8 8 8 7 7 8 8
7 7 7 7 7 7 7 8 9 10 11 12 13 14 14 15 16 17 19 21 21 21 22 22 23 22 21 21 24 24 22 19 16 15 16 14 11 12 13 12 10 9 8 8 7 9 12 10 7 7 8 8 7 6 5 6 6 6 6 6 7 8 9
8 8 8 9 9 9 9 9 10 10 11 12 13 14 15 15 16 17 17 17 19 19 19 19 20 20 19 21 23 24 22 19 17 16 15 14 11 12 14 14 13 10 9 9 9 11 13 10 6 7 7 7 7 7 7 6 4 2 3 5 6 8 9
9 9 10 10 10 10 10 11 11 12 12 13 14 14 14 15 16 17 17 16 17 18 17 17 18 18 18 21 23 23 21 19 19 16 14 13 12 12 14 14 13 11 10 11 10 11 12 9 6 5 6 4 4 5 7 7 5 3 3 5 6 7 8
11 11 12 12 12 12 12 12 13 13 14 15 15 15 15 15 15 16 17 16 17 17 18 19 19 17 18 21 24 23 19 19 20 17 16 17 16 14 13 13 14 13 12 12 11 10 11 10 8 7 5 3 5 7 6 3 4 5 6 6 8 8 8
13 14 14 13 14 14 14 14 15 15 16 16 17 17 16 16 15 15 16 16 16 17 18 21 22 20 20 23 26 24 19 18 20 20 21 21 18 15 14 14 16 15 13 12 11 10 10 10 9 7 6 4 5 5 3 2 4 5 6 6 7 8 8
15 15 15 15 15 16 16 16 16 17 17 17 18 19 18 18 17 16 15 14 14 15 17 20 23 23 21 23 25 24 18 16 18 22 22 20 16 15 15 16 17 16 13 11 10 9 8 8 7 5 4 4 4 4 3 3 4 5 5 6 7 8 9
16 16 16 17 17 18 18 18 18 18 18 18 19 20 20 19 18 18 18 15 15 16 16 17 19 21 21 22 26 25 19 17 21 21 19 16 16 16 16 17 17 15 13 11 9 8 6 5 4 3 3 2 1 0 1 2 4 5 5 6 7 7 7

ECMWFFLT1_925_spd_024.txt.gz
Wind_Speed
16 14 11 11 11 10 8 6 6 8 8 8 8 7 8 8 6 5 3 2 1 2 3 5 6 6 6 8 10 10 10 12 15 16 14 10 8 8 7 5 2 5 8 7 5 6 4 4 8 12 13 13 14 14 13 12 12 13 14 16 16 15 13
15 14 12 11 10 10 8 7 8 9 7 7 8 6 7 7 6 5 5 3 2 3 1 5 8 7 7 9 10 10 11 11 9 10 13 11 9 9 8 7 5 7 8 6 7 9 5 4 5 5 8 11 11 12 13 13 13 13 14 15 16 13 10
14 14 14 11 10 9 7 7 7 7 6 6 7 5 6 8 6 6 7 5 5 6 6 8 8 6 5 7 9 10 10 10 8 8 9 9 9 9 8 9 8 7 7 4 7 9 5 4 7 6 10 10 8 10 13 15 14 13 14 14 15 13 8
14 14 13 11 10 9 8 7 6 6 7 7 6 5 7 8 7 7 8 6 5 6 7 8 7 5 6 7 9 10 9 10 10 9 8 8 11 11 9 9 9 9 9 8 10 12 7 5 9 7 11 13 9 9 12 14 15 15 14 14 13 11 6
14 13 13 11 9 9 8 7 7 7 7 6 5 5 6 6 6 7 7 7 7 7 7 7 6 7 7 7 9 9 10 10 10 9 9 9 11 12 12 12 12 12 13 13 14 15 12 12 14 9 12 14 9 9 12 12 14 14 14 14 13 11 7
13 12 12 11 9 9 8 7 7 6 6 6 6 6 6 5 6 7 7 8 8 8 8 6 7 8 7 8 9 9 10 11 10 10 11 11 9 10 11 11 13 13 11 9 9 11 14 15 15 11 14 16 12 11 13 13 14 13 12 12 11 11 10
14 13 13 11 9 9 9 7 7 7 7 7 7 6 6 5 7 7 8 9 8 8 8 8 9 10 10 11 12 12 13 13 13 12 11 10 9 9 10 10 11 11 8 7 7 7 9 9 10 13 14 14 14 14 14 15 15 13 12 11 10 9 8
15 14 13 12 10 10 9 7 7 8 9 9 8 7 6 7 8 7 7 8 8 9 9 9 10 12 13 14 14 14 15 14 14 13 12 11 11 11 11 12 13 11 7 5 6 6 5 4 11 18 13 7 8 8 9 13 14 13 13 12 10 9 8
14 13 14 14 12 11 10 9 9 9 10 10 9 7 7 7 7 7 8 8 8 8 8 9 10 11 13 13 13 14 14 14 14 13 13 13 12 11 11 11 12 11 8 7 7 9 10 10 14 15 8 6 4 5 6 8 9 11 12 13 12 9 8
14 13 15 15 13 12 11 10 11 11 11 10 10 8 7 7 7 8 8 8 8 8 8 9 10 11 12 12 12 13 13 14 15 14 14 14 12 11 12 12 12 11 10 10 10 11 13 12 11 8 5 5 7 4 3 4 5 7 8 10 11 9 6
14 14 15 16 14 13 13 12 12 12 11 10 10 9 8 8 8 8 9 9 8 8 8 9 9 10 11 11 11 12 13 14 14 14 14 13 12 13 13 14 14 13 12 12 12 12 13 11 7 8 12 13 14 10 7 7 5 7 9 10 10 8 6
14 15 16 16 15 14 14 13 12 11 10 10 10 10 9 9 8 8 9 9 8 8 8 9 9 9 10 11 12 12 12 13 14 14 14 13 13 14 15 15 15 14 13 12 11 9 10 9 7 8 12 13 15 14 14 13 5 6 10 9 7 6 5
14 16 16 15 15 14 14 14 12 11 10 9 9 10 9 9 8 8 8 8 8 8 8 8 8 9 10 10 11 12 12 13 14 14 14 13 14 14 14 13 12 12 12 11 10 7 8 10 9 9 8 10 11 11 14 17 10 6 9 8 6 4 4
14 15 15 15 15 14 15 14 13 11 10 9 9 9 9 8 8 8 8 7 7 7 7 7 8 9 9 10 11 12 12 12 13 13 14 13 13 13 12 11 10 10 9 9 8 7 8 7 6 5 5 7 8 7 10 16 14 9 7 7 8 5 3
14 15 16 16 15 15 15 14 13 13 11 10 10 9 8 8 8 8 8 8 7 7 7 7 7 8 9 10 11 11 12 13 13 14 13 12 12 12 11 10 9 8 7 5 4 6 7 3 3 5 7 9 9 6 5 7 10 13 10 8 8 6 4
14 16 17 16 15 15 15 14 13 13 11 9 10 10 9 8 8 8 8 8 7 7 7 7 7 7 9 10 10 9 12 14 13 12 12 11 11 10 10 9 7 6 6 3 3 5 4 2 4 7 8 8 7 5 4 5 5 10 13 10 8 8 9
13 15 16 16 15 14 13 13 12 11 11 10 10 10 10 9 8 8 9 8 8 8 8 7 7 8 9 9 8 9 11 13 12 11 11 12 11 10 9 8 7 6 5 4 4 4 2 4 4 5 4 3 3 3 1 3 4 3 7 8 6 7 8
13 15 14 14 14 12 12 12 11 11 11 11 10 10 10 10 9 9 9 9 9 9 8 8 7 8 9 8 8 9 10 11 11 10 10 11 11 10 9 8 7 6 4 3 3 2 2 3 4 4 2 1 4 7 5 0 3 3 2 2 1 2 3
13 13 13 13 13 12 11 11 12 12 12 11 11 10 10 11 10 10 10 9 10 10 9 9 9 9 10 9 9 9 10 10 10 9 9 10 9 9 7 6 6 6 4 3 2 2 2 1 3 4 5 6 3 6 5 0 2 3 1 1 1 2 3
12 11 10 11 12 10 9 9 10 11 11 11 12 11 10 11 11 11 11 10 10 11 11 11 10 11 10 10 11 10 10 10 9 8 8 8 8 8 6 5 5 4 3 2 2 3 3 2 4 5 6 6 4 1 2 3 3 5 4 3 4 4 4
11 11 10 10 11 10 8 8 9 10 10 11 12 12 11 11 11 11 12 12 12 12 13 13 13 13 12 11 11 10 10 11 9 9 9 8 8 9 8 7 6 4 3 2 1 2 3 4 4 4 5 7 7 6 6 4 3 6 8 6 6 6 7
9 10 10 9 9 9 8 8 9 10 10 10 11 12 12 11 12 12 12 13 13 14 15 15 15 15 15 14 13 12 12 12 11 11 10 7 9 11 10 9 6 4 4 4 3 4 5 6 6 5 5 6 6 6 8 6 5 6 7 8 10 11 8
8 8 8 7 7 7 7 8 9 10 10 10 10 11 11 12 13 13 14 14 14 16 16 17 17 17 17 17 16 15 14 13 13 14 12 9 10 11 11 10 8 6 5 6 6 8 9 10 11 11 10 10 9 8 7 7 7 8 8 10 12 11 6
7 6 5 5 5 6 6 7 8 7 8 8 9 10 11 12 13 13 14 15 15 16 17 17 17 17 18 18 17 17 16 14 14 16 15 11 10 12 12 11 10 8 7 8 10 11 13 13 13 14 14 14 14 13 11 9 8 9 8 9 10 8 6
5 5 6 6 6 6 7 8 9 9 9 9 9 9 10 12 13 13 14 15 16 15 16 17 18 17 19 20 19 19 18 17 15 16 17 12 10 12 12 11 10 11 10 11 13 14 14 13 11 11 12 13 14 15 15 12 9 7 6 4 5 6 4
4 2 3 3 3 4 5 7 9 10 10 10 11 11 11 12 14 15 17 17 14 9 7 12 16 19 21 22 22 21 20 18 18 19 20 16 13 13 13 12 12 11 9 11 13 13 13 14 12 10 9 10 12 14 14 14 12 9 7 4 1 4 3
5 4 2 1 1 3 6 7 9 11 11 12 14 14 13 14 16 17 16 14 12 9 8 11 15 18 21 23 24 23 21 17 17 19 20 19 17 15 15 14 14 13 11 13 14 13 14 16 13 10 9 9 10 11 11 13 14 13 11 9 4 1 1
7 4 2 1 2 5 7 8 9 10 11 12 14 13 13 15 18 19 17 14 14 13 14 17 19 19 21 24 26 25 22 17 14 15 17 17 17 18 18 17 16 15 14 14 14 15 16 15 12 10 9 7 7 8 9 10 10 10 9 9 8 6 4
14 12 9 5 3 4 6 7 7 8 9 10 11 12 12 14 17 18 19 19 18 15 14 19 24 25 24 26 27 26 23 18 14 14 15 16 18 19 19 19 17 15 16 17 16 16 14 11 10 9 10 10 9 7 7 7 7 7 8 7 8 8 6
15 15 14 13 12 10 7 5 5 6 8 9 10 12 13 14 16 18 20 22 22 20 18 19 24 28 28 28 29 29 26 23 20 18 17 18 19 18 18 18 17 16 16 17 16 16 14 12 10 11 14 13 9 7 7 7 7 8 8 7 7 7 7
14 13 14 14 15 15 14 11 9 8 8 9 11 14 15 16 17 18 20 22 24 24 23 20 22 26 27 28 30 31 28 27 25 23 22 22 20 20 20 20 18 17 16 16 17 17 16 15 13 14 15 12 8 6 7 8 8 8 8 7 6 6 7
13 12 12 13 13 14 14 14 14 13 12 12 12 14 16 18 19 20 21 23 25 26 26 26 25 26 27 28 29 31 30 27 25 24 24 23 21 21 22 21 20 19 17 16 18 19 19 17 14 14 14 11 9 9 7 5 6 6 4 3 4 6 7
13 13 13 14 14 14 14 15 16 16 16 16 15 16 16 16 17 19 20 21 24 26 27 29 29 29 30 31 31 32 31 27 24 23 23 23 22 22 23 20 19 19 18 18 18 19 20 17 13 14 14 11 11 11 8 7 8 6 3 1 4 6 8
14 15 15 16 17 17 17 17 17 17 17 17 18 19 19 18 18 18 18 19 22 24 26 29 29 29 31 33 32 32 30 26 22 19 18 19 20 22 22 20 18 17 17 19 19 19 18 14 11 14 14 10 12 14 11 9 8 5 1 3 4 5 6
15 16 17 17 18 20 19 19 19 19 19 20 21 22 22 21 21 21 20 19 20 21 24 27 27 27 29 31 30 28 28 26 21 16 17 18 16 16 15 15 15 14 15 18 19 18 16 13 11 12 11 10 13 14 10 6 4 1 2 2 3 5 6
16 17 17 17 19 20 20 20 21 21 21 22 22 23 23 23 23 22 22 22 22 22 21 23 27 28 28 28 27 27 27 24 19 19 23 20 14 12 13 14 16 16 17 18 17 15 15 13 11 9 8 7 8 8 5 3 2 2 2 2 4 5 7
16 17 17 18 20 21 21 21 21 22 22 22 22 22 23 23 23 23 22 23 24 24 22 22 25 29 29 28 27 27 25 22 20 22 21 16 14 18 19 18 18 18 18 18 17 15 13 12 10 8 7 6 5 4 3 3 2 3 2 2 4 5 5

ECMWFFLT1_925_spd_030.txt.gz
Wind_Speed
24 22 19 18 16 15 15 15 14 13 12 11 11 11 10 9 7 6 6 6 6 8 9 10 9 10 10 10 11 11 12 13 13 15 19 19 16 12 9 6 5 11 16 15 14 13 7 4 7 11 11 11 11 12 15 17 17 15 13 12 11 10 10
23 22 21 18 16 15 14 14 13 12 12 12 11 10 10 8 7 6 6 5 5 7 8 9 10 9 10 10 10 9 9 11 12 13 16 18 18 15 11 8 9 12 13 15 17 16 11 7 5 5 10 12 11 14 17 16 14 12 12 12 11 11 10
25 24 22 19 17 15 14 14 13 13 12 12 11 10 9 7 7 7 6 4 4 7 7 8 10 10 9 9 9 8 7 9 11 11 13 16 17 15 13 12 14 16 14 13 14 14 12 8 6 6 11 13 12 13 16 15 12 11 11 10 10 11 10
28 27 24 21 19 17 17 16 15 14 13 13 13 11 10 10 10 9 7 4 4 8 9 9 10 11 10 9 9 8 7 8 9 10 12 14 14 14 14 14 17 19 17 15 16 17 12 9 8 6 9 15 16 16 16 14 13 12 11 9 9 10 10
30 29 26 23 22 21 20 19 17 16 15 15 15 13 12 12 10 9 9 7 6 8 10 9 10 12 11 11 11 10 9 8 9 11 12 14 13 14 16 16 17 20 19 20 21 18 15 18 16 9 9 14 14 14 18 16 14 13 11 8 8 9 10
31 29 26 25 25 24 23 21 18 17 16 16 15 12 12 12 10 10 10 10 9 9 9 9 10 11 11 11 12 12 11 10 11 11 12 13 12 13 16 16 16 17 16 19 20 15 16 24 22 13 10 11 11 13 16 16 15 13 10 8 7 8 10
30 28 26 25 26 24 22 21 19 17 16 14 13 11 11 12 11 11 11 10 11 10 10 10 10 10 11 11 12 11 11 11 11 10 10 10 10 12 15 15 15 14 12 16 18 16 19 26 25 19 12 8 11 14 12 12 14 11 8 7 6 7 8
28 26 25 24 24 22 20 19 18 16 14 11 11 11 11 12 11 11 11 10 10 10 10 10 11 12 12 12 12 11 11 11 11 11 10 10 11 12 13 12 12 12 11 14 16 17 22 26 26 27 21 10 6 7 7 9 10 9 10 10 6 5 6
25 24 23 22 21 20 18 18 17 15 13 11 11 11 11 11 11 10 10 10 10 10 10 11 12 13 13 13 14 13 12 12 12 11 11 11 12 12 11 10 10 12 13 15 17 18 22 24 26 28 28 21 10 4 4 5 4 6 11 12 8 6 6
24 23 22 21 20 19 18 18 17 16 15 13 12 13 12 12 10 11 12 12 12 11 11 13 14 14 15 14 15 15 14 13 12 12 13 14 15 16 16 15 13 13 15 18 20 21 22 23 25 25 27 28 22 10 4 3 4 7 12 11 8 8 8
23 23 22 21 20 20 19 19 18 18 17 15 15 14 13 12 11 12 12 11 13 14 13 15 15 16 17 16 16 17 17 16 15 16 16 17 19 19 19 18 17 15 14 18 23 25 25 23 24 25 25 28 28 20 11 6 4 8 14 12 9 9 10
23 23 23 22 21 20 20 20 21 20 18 16 16 14 13 13 12 13 11 11 14 15 14 14 15 16 17 18 18 19 18 17 17 17 17 17 18 18 18 17 18 19 19 18 21 24 25 23 23 25 25 24 26 24 20 14 5 8 15 14 10 10 10
23 24 24 22 21 20 21 22 22 20 18 16 15 14 14 14 14 14 13 14 16 16 15 14 14 16 17 17 18 19 18 17 17 17 16 15 15 15 17 17 18 20 22 23 22 22 20 18 19 23 26 24 23 22 22 18 9 9 14 13 11 11 8
23 23 23 21 20 20 21 22 21 19 16 14 14 15 15 16 16 14 13 14 16 16 15 14 14 16 17 17 17 18 18 17 18 17 15 14 14 15 16 16 17 19 21 21 21 20 18 16 14 16 22 25 23 21 21 18 13 12 12 12 12 11 9
24 23 22 20 20 21 21 20 19 17 15 15 15 16 15 15 16 15 14 14 15 15 15 14 14 16 17 17 18 19 19 19 19 17 16 15 16 16 17 17 17 17 18 17 16 15 14 13 12 13 16 22 24 23 19 17 17 15 13 13 15 13 11
24 22 21 20 20 20 19 18 16 15 16 17 16 15 14 15 16 15 15 15 15 14 14 14 14 15 17 18 19 20 20 20 19 19 19 18 16 16 18 18 16 15 15 14 12 12 12 12 12 12 14 18 22 21 16 14 15 16 16 16 16 15 14
24 22 21 20 20 19 18 17 15 14 17 18 17 15 14 14 15 15 15 15 14 13 14 14 14 16 17 17 19 21 21 21 21 21 22 20 17 17 18 18 16 14 14 14 12 11 12 13 14 14 15 16 16 15 13 12 13 15 16 17 16 16 15
20 21 21 20 20 19 17 16 14 16 18 19 18 16 15 15 15 15 16 16 14 14 14 14 15 16 16 16 18 22 23 22 22 22 21 20 19 19 19 18 17 15 15 15 13 12 14 15 15 15 15 14 13 12 11 12 12 13 15 16 16 15 15
16 17 18 19 20 20 19 17 16 18 20 20 18 17 16 16 16 16 16 15 14 15 15 14 15 16 16 17 18 21 21 21 20 20 20 20 20 20 19 19 18 16 16 17 16 14 14 15 16 15 15 14 13 12 11 11 12 13 14 15 16 15 14
19 18 17 16 16 17 18 18 17 17 18 20 19 17 16 16 16 17 17 15 15 15 14 14 16 16 16 17 19 20 20 20 20 21 19 19 19 18 18 18 18 18 18 17 17 16 15 15 15 14 15 15 15 14 12 11 11 12 12 13 14 14 14
24 22 18 14 13 15 15 16 16 15 16 19 18 16 16 15 14 17 19 17 16 17 15 15 17 17 15 16 20 22 20 20 21 20 19 18 18 17 16 17 18 18 18 17 16 16 16 16 15 15 15 15 15 14 12 10 10 11 11 10 11 12 12
24 21 18 16 14 14 12 12 14 13 13 16 15 14 16 15 14 17 20 19 19 19 18 18 19 19 17 18 22 24 22 21 21 20 20 20 18 17 17 17 17 18 18 17 16 15 14 14 15 15 15 15 15 14 13 11 10 10 10 9 9 8 8
18 17 18 18 17 16 13 11 11 11 11 13 14 14 16 16 15 16 19 20 21 22 21 20 20 21 21 20 22 24 24 23 22 20 21 22 21 20 19 18 18 18 18 18 17 16 15 14 13 13 13 14 14 15 14 14 13 11 10 10 9 8 7
12 13 16 18 17 16 15 12 9 6 7 11 14 16 16 16 15 16 17 19 22 24 24 22 21 22 23 22 22 23 24 25 22 20 22 24 24 23 21 21 21 20 19 19 18 17 16 15 14 12 12 12 13 14 14 15 15 14 14 13 12 11 10
10 10 11 13 13 13 13 13 10 6 3 5 11 16 17 16 15 15 16 18 19 22 24 24 22 23 23 24 24 23 24 25 23 22 23 25 25 25 24 22 23 23 22 21 20 19 18 17 16 15 14 14 14 14 14 15 15 16 16 15 14 13 12
12 10 8 7 7 6 6 7 8 6 2 1 4 9 11 12 11 12 14 16 16 18 20 22 24 25 25 25 25 24 25 26 26 25 25 25 25 25 25 24 24 24 23 22 21 20 19 19 17 17 17 18 18 18 18 18 17 16 17 17 16 16 15
20 17 15 12 10 8 8 5 3 3 3 5 5 5 5 6 6 7 8 10 12 13 14 16 20 24 27 28 28 27 27 28 29 29 29 28 28 27 27 27 27 25 24 23 21 20 20 19 17 17 18 19 19 20 20 20 19 19 18 18 18 18 17
22 20 18 17 16 15 15 13 10 6 1 3 6 8 8 7 8 9 9 10 12 13 14 14 14 17 21 26 29 31 31 31 31 32 32 32 31 30 29 29 29 28 26 25 23 22 21 19 17 17 18 19 19 19 19 18 18 17 18 17 16 16 16
20 19 17 16 17 17 16 14 13 10 8 6 3 3 4 5 8 11 13 13 14 15 16 16 16 16 16 19 23 28 32 33 33 33 34 34 34 33 32 31 31 30 28 27 26 25 23 21 19 18 19 20 20 19 18 17 16 14 14 14 13 13 14
18 18 17 16 17 16 15 14 13 12 11 10 9 9 8 6 6 7 10 11 13 14 14 14 16 17 17 18 19 21 25 30 33 33 34 34 34 34 34 33 33 31 30 30 29 27 24 22 20 20 21 21 20 19 17 16 14 12 12 12 12 12 12
18 18 17 17 17 16 15 14 14 13 13 12 12 11 11 9 8 7 7 9 12 14 15 15 16 17 18 19 19 20 21 25 30 31 31 32 32 32 33 33 32 31 30 31 28 24 22 22 22 22 22 22 21 19 17 15 13 12 14 14 14 13 11
19 19 19 18 17 17 16 15 14 14 13 13 13 12 12 11 10 9 9 9 10 12 15 16 17 18 20 20 21 21 21 24 27 27 28 29 30 31 31 30 29 29 29 28 26 24 23 24 24 24 23 23 24 22 19 16 15 17 18 17 14 12 10
18 18 18 18 17 17 17 16 16 15 15 15 15 14 13 13 13 12 12 12 12 13 15 16 17 18 19 21 23 24 24 25 26 27 28 29 30 31 29 25 25 28 28 25 25 24 24 25 25 25 25 26 25 21 17 17 17 16 16 14 12 11 10
17 17 17 16 16 16 16 16 16 16 16 16 16 16 16 16 16 15 14 13 13 13 14 15 16 16 17 20 23 26 28 28 28 28 30 31 31 32 30 26 26 28 28 26 25 25 25 25 26 27 29 28 22 15 15 18 17 14 13 12 11 11 11
16 16 16 16 16 15 15 15 15 15 16 16 16 16 17 17 18 17 16 15 14 13 13 13 15 16 17 18 21 25 30 31 30 30 31 32 33 34 35 34 32 31 31 31 29 28 26 27 28 28 27 23 17 14 18 21 18 15 15 14 13 13 11
17 16 16 16 16 15 15 15 15 15 16 17 17 18 18 18 19 20 20 19 18 18 17 17 16 17 17 18 19 22 27 31 32 33 32 32 34 35 36 38 36 34 33 31 29 28 27 27 30 29 25 21 17 18 21 23 19 17 17 16 14 14 12
16 16 16 17 17 17 17 17 17 17 17 18 19 19 19 20 21 22 22 22 22 22 22 21 20 19 19 19 19 20 22 26 31 35 35 34 35 35 35 36 35 33 31 29 27 26 27 28 30 29 25 23 22 23 24 24 22 20 19 17 15 14 13

ECMWFFLT1_925_spd_033.txt.gz
Wind_Speed
23 22 21 19 17 16 15 14 12 11 10 9 9 10 9 9 8 9 9 8 7 7 8 9 9 10 12 13 13 14 15 14 13 15 16 18 17 10 6 3 3 10 15 11 11 11 6 3 6 8 9 8 7 8 9 9 10 9 9 8 9 9 9
23 22 22 20 18 17 15 14 13 12 12 11 10 10 10 10 9 8 8 6 5 5 6 6 7 9 11 11 12 13 15 15 14 15 16 19 19 13 8 6 9 14 13 10 14 14 8 6 4 4 8 10 9 9 10 10 9 8 8 8 7 7 8
24 24 23 21 19 17 16 15 14 13 13 12 11 11 10 9 9 8 7 6 5 5 4 5 6 8 9 10 11 11 13 14 15 16 15 18 19 15 11 11 15 17 12 9 11 13 11 8 6 6 11 12 9 9 10 11 9 7 7 7 6 6 7
26 26 24 22 20 18 17 15 15 14 13 12 10 9 8 8 9 8 6 4 4 5 5 5 6 8 8 9 10 10 10 11 13 15 14 16 19 16 12 12 18 20 16 13 14 16 13 10 8 8 10 13 12 10 11 10 9 8 7 6 6 6 7
26 26 24 23 22 19 18 16 14 13 12 11 9 8 9 8 7 5 4 3 3 6 8 6 7 8 7 8 10 10 9 9 10 13 13 15 17 17 14 12 16 19 18 17 19 19 17 18 16 10 10 14 10 8 11 11 10 9 7 7 7 8 8
24 23 22 22 21 19 18 16 15 13 12 11 9 9 9 8 6 3 3 3 2 6 10 8 7 8 8 9 10 10 9 9 10 11 13 14 16 17 16 13 15 17 16 18 20 18 18 24 23 14 12 13 10 8 11 11 10 9 7 6 7 9 10
22 20 19 19 18 17 16 14 13 11 11 11 9 9 8 8 6 4 4 4 3 6 9 9 8 9 10 10 10 11 10 10 11 11 12 14 14 15 16 15 16 16 15 18 21 19 20 25 25 21 14 9 10 13 9 7 9 7 6 6 7 8 9
21 19 17 15 14 14 13 12 11 10 10 10 7 7 7 7 6 6 6 5 4 5 7 8 9 10 10 11 11 11 10 10 11 11 12 13 13 14 16 17 17 15 14 19 21 19 21 25 25 27 23 11 6 7 6 6 8 6 5 8 7 7 8
20 18 15 13 11 11 11 9 9 9 9 8 7 6 7 7 6 7 7 6 5 5 5 6 7 9 10 10 11 11 11 11 10 9 9 11 11 12 15 16 16 16 14 18 22 19 21 26 25 27 28 22 12 4 2 5 6 5 7 9 7 7 8
18 16 14 12 11 11 10 9 9 9 8 7 7 8 9 8 7 6 6 7 7 5 6 7 7 8 9 10 11 11 11 10 10 9 9 10 11 11 14 14 15 16 15 17 21 19 21 26 27 26 25 24 20 11 3 3 5 7 10 10 7 7 9
17 15 14 13 13 12 11 11 10 10 9 7 8 9 10 9 7 6 7 8 7 5 6 8 8 8 9 10 11 11 10 10 10 11 10 11 12 12 13 15 16 19 18 19 19 18 22 27 27 26 22 21 22 17 10 7 5 9 14 12 9 9 11
18 16 15 14 14 13 12 12 12 12 10 9 9 10 10 9 8 7 8 8 7 5 5 7 8 9 9 10 11 12 11 10 10 12 12 14 14 13 13 14 17 20 21 22 22 19 23 27 25 25 23 21 21 18 16 13 5 8 16 14 11 12 12
19 16 15 15 15 15 14 14 13 13 12 11 11 12 11 10 9 8 8 8 8 6 5 7 8 9 10 10 11 12 11 11 12 14 15 17 16 14 13 12 13 17 20 23 25 23 24 26 24 24 24 23 21 17 17 16 9 9 17 15 11 12 13
19 17 17 16 15 16 15 15 15 14 13 12 11 11 11 10 9 8 8 8 9 8 6 7 8 9 10 11 12 12 12 13 14 15 16 17 16 14 13 12 11 13 17 21 25 25 25 25 24 24 24 23 23 20 17 17 12 10 15 16 13 12 14
18 18 19 18 18 17 16 16 16 15 14 12 11 10 10 10 9 8 8 9 10 9 7 7 8 9 10 11 12 11 11 13 15 15 15 15 14 15 15 14 13 13 15 19 23 25 25 25 24 25 26 25 25 23 19 17 14 12 15 17 15 14 15
19 19 20 20 19 18 17 16 16 15 14 12 10 9 9 10 10 9 9 9 11 10 8 7 8 9 10 10 11 11 10 12 13 14 14 13 13 14 16 17 17 16 16 17 19 21 22 23 23 24 26 27 27 26 22 19 15 14 17 18 16 16 16
19 18 19 19 17 16 15 16 15 14 12 10 9 9 9 10 10 10 10 10 11 11 9 8 8 8 10 10 10 11 11 12 13 13 12 13 14 15 16 18 18 18 18 18 18 19 18 18 18 19 22 25 28 26 23 20 16 14 17 18 17 17 16
18 18 18 17 16 15 15 15 14 12 11 10 9 10 9 9 10 10 11 11 11 11 10 9 9 9 10 10 11 11 12 13 13 13 12 12 14 15 16 17 17 16 17 18 18 17 17 15 14 14 16 19 23 24 22 20 16 15 17 18 19 18 17
19 19 19 17 15 15 14 14 13 11 10 10 11 11 10 9 9 10 12 12 11 11 10 9 9 9 11 12 12 12 13 14 13 13 13 12 12 13 15 15 15 15 15 16 16 16 16 15 13 13 14 15 18 21 20 18 16 16 17 18 18 18 18
22 21 19 17 16 15 14 14 13 11 11 12 13 13 11 10 10 10 11 12 13 11 11 10 10 11 12 12 12 13 14 15 14 14 15 13 12 12 13 13 13 13 13 14 14 14 14 14 14 14 14 15 17 19 18 16 16 16 16 16 17 17 18
21 20 18 17 15 13 13 14 13 12 12 14 15 14 13 12 12 11 11 11 12 12 12 12 12 12 13 13 12 13 16 18 17 15 15 15 14 13 13 12 12 12 12 12 12 13 13 14 15 15 15 15 15 16 16 15 16 16 16 16 16 17 17
21 19 18 16 14 13 13 13 12 12 13 15 16 15 14 13 13 13 13 13 13 12 12 13 12 12 13 13 13 14 16 18 19 18 17 17 17 16 16 15 14 14 13 13 12 12 12 13 15 16 16 16 15 15 15 15 15 15 16 16 16 16 17
18 17 15 13 13 14 14 13 14 13 13 13 15 15 15 13 13 13 13 14 14 13 13 13 13 12 13 14 14 15 17 19 19 19 19 19 19 19 19 18 17 17 16 16 15 14 14 13 14 14 15 16 17 17 16 16 15 15 15 16 16 16 17
12 13 13 13 13 12 12 13 14 13 11 11 13 16 15 14 14 13 12 13 15 16 14 14 14 14 14 15 15 15 17 20 21 20 20 21 21 21 20 20 18 17 17 17 17 16 16 15 15 14 14 15 16 17 16 16 16 15 16 16 16 16 17
12 11 11 10 9 8 8 9 9 9 7 6 8 12 14 14 14 14 13 13 15 17 16 15 15 15 15 16 17 17 17 20 22 22 22 23 23 23 22 22 20 19 18 18 18 18 17 17 17 16 15 15 15 15 16 16 16 16 16 16 17 17 18
16 14 13 11 11 12 11 9 8 7 5 4 3 4 7 9 11 12 12 12 14 16 18 19 19 19 18 18 19 20 20 21 23 24 25 25 25 24 24 24 24 23 22 21 21 20 20 19 18 17 17 17 16 16 16 17 17 17 17 18 19 20 20
22 21 19 18 16 14 11 7 6 4 3 3 4 3 2 3 5 6 6 7 8 10 12 14 17 20 21 22 23 24 24 24 25 26 27 28 28 26 25 26 27 27 26 25 25 25 24 23 22 21 20 20 20 19 18 19 19 19 19 19 20 21 21
26 25 23 22 20 18 15 12 10 7 6 4 3 1 1 2 3 4 4 5 7 7 7 7 10 12 15 17 20 23 26 28 29 29 29 29 30 30 28 27 28 29 29 28 28 28 27 27 25 24 24 24 23 22 21 21 21 20 20 20 21 21 21
25 24 23 21 20 20 17 15 13 11 10 9 7 4 2 2 3 4 5 8 10 11 9 8 8 10 11 12 14 17 21 26 29 31 32 32 32 32 32 31 31 31 32 31 31 31 31 30 29 28 28 26 24 22 21 21 20 20 20 19 18 18 18
25 24 23 23 22 20 17 15 14 12 11 10 10 8 7 7 6 5 3 5 7 9 8 8 9 10 11 12 13 14 16 19 23 26 29 31 33 34 35 35 35 35 35 35 35 35 34 33 32 30 27 22 20 20 20 21 21 20 19 17 15 13 12
23 22 22 22 22 20 18 16 15 13 11 11 10 9 9 8 7 7 5 4 6 6 7 7 9 9 10 10 11 12 14 17 20 22 24 26 29 32 34 35 35 36 37 38 37 37 37 37 35 32 27 21 20 23 23 22 22 20 17 14 12 11 13
22 21 20 19 18 17 17 16 14 13 12 11 11 10 9 8 8 8 7 7 8 8 8 8 8 9 10 10 11 11 12 15 18 21 23 25 26 27 29 31 33 35 37 38 38 37 39 36 30 26 24 23 24 27 27 24 22 20 16 14 14 15 17
20 19 17 16 14 13 13 14 14 14 13 12 11 10 10 9 9 8 8 8 8 9 10 10 10 10 11 11 12 13 13 14 16 19 22 25 27 28 28 28 30 32 35 37 37 38 37 31 23 21 23 25 27 28 28 25 22 18 16 17 18 18 18
16 15 14 13 12 11 12 12 13 13 13 12 11 10 10 10 9 8 8 8 8 9 11 12 12 12 11 12 12 14 15 15 15 17 19 23 27 29 30 30 30 31 33 34 36 38 36 31 28 27 26 26 27 28 27 26 23 19 18 20 21 19 18
14 13 13 12 12 12 11 11 11 11 11 11 10 10 10 10 10 9 9 9 9 9 10 12 13 14 13 13 13 14 15 16 16 17 19 21 24 26 28 30 31 31 32 33 34 36 36 34 33 28 23 22 25 27 27 25 23 21 21 22 22 20 19
12 12 13 12 12 12 11 11 10 10 11 11 10 10 11 11 11 11 11 10 10 11 11 12 13 14 15 15 15 15 16 16 15 16 18 20 22 24 25 27 28 30 32 33 33 34 35 35 33 27 22 22 25 26 24 24 24 25 25 25 23 22 20
12 13 13 14 13 13 12 12 11 11 11 11 11 11 12 12 12 13 13 13 13 12 13 13 13 14 15 16 17 17 17 17 16 16 18 19 20 21 22 24 25 26 30 32 33 33 35 36 35 30 25 25 26 25 24 25 27 28 28 27 25 24 22

ECMWFFLT1_925_spd_036.txt.gz
Wind_Speed
17 17 15 13 12 10 9 9 10 10 8 8 8 8 8 8 8 9 10 9 9 9 10 11 11 10 12 15 16 16 17 17 18 19 19 18 17 12 9 5 1 11 19 12 11 13 6 3 5 6 7 9 10 10 11 11 9 9 9 9 10 10 10
17 17 15 14 13 11 11 11 11 11 10 9 9 9 8 8 8 9 10 9 8 9 9 10 10 9 12 15 16 15 15 15 14 15 16 17 18 14 10 7 6 14 15 9 14 16 10 6 4 3 7 10 10 10 10 10 9 8 8 8 9 9 9
17 16 15 15 14 13 12 13 13 12 12 11 10 10 9 9 9 9 9 8 8 8 9 10 10 10 12 14 14 14 14 13 12 12 12 14 16 14 10 8 9 14 13 8 12 15 11 7 4 5 8 8 8 8 9 9 8 7 8 8 8 8 9
18 17 17 17 16 15 14 14 14 14 13 12 12 11 10 10 10 9 8 7 8 9 9 10 10 11 12 12 12 12 13 13 12 11 10 11 14 13 10 8 10 14 15 12 14 16 13 10 7 6 7 7 8 7 8 8 7 7 7 7 8 8 8
17 18 19 20 18 17 17 16 16 15 14 13 11 10 10 10 9 7 6 6 7 8 9 9 10 10 11 11 11 11 11 11 11 12 12 11 13 14 12 9 10 15 16 14 17 18 16 18 17 9 7 9 7 5 8 8 6 7 7 7 8 8 9
18 20 22 21 19 19 18 18 17 16 14 13 11 10 10 9 7 5 4 4 4 7 9 9 10 10 10 10 11 11 10 10 10 11 12 12 13 15 15 12 11 16 15 12 16 17 16 22 23 14 9 8 5 5 7 6 5 5 6 7 8 9 9
20 22 22 20 19 19 19 18 17 16 15 13 12 11 9 8 6 4 4 4 3 7 10 9 8 9 9 9 10 10 9 8 9 10 11 12 12 14 16 13 12 16 15 11 15 17 17 22 24 19 12 6 6 7 6 4 5 4 4 7 9 10 10
22 22 20 18 19 19 18 17 16 16 15 13 12 11 10 9 6 4 5 4 4 6 9 8 7 7 7 8 9 9 9 8 8 9 9 10 12 13 16 15 12 14 14 12 15 17 18 20 22 24 20 10 5 4 3 3 6 5 5 7 9 10 11
23 22 20 19 19 19 18 17 16 15 14 13 13 12 11 9 7 5 4 4 4 5 7 7 7 7 7 7 8 9 9 9 8 8 8 9 11 12 14 15 13 12 12 12 15 16 17 19 21 24 25 20 11 3 1 2 5 6 6 8 10 10 12
25 23 21 21 20 18 17 16 16 16 14 12 11 10 10 9 7 6 4 3 4 4 4 5 5 6 7 8 9 9 9 9 8 8 8 9 11 11 12 14 13 12 10 11 15 16 17 19 21 22 23 23 19 10 2 2 5 8 9 10 10 10 13
26 23 22 20 19 19 18 17 16 15 13 10 9 9 9 9 7 5 4 4 4 3 3 4 4 5 7 8 9 9 8 8 8 9 9 10 11 12 12 13 13 13 11 12 15 16 17 18 20 21 21 21 20 16 10 5 5 10 12 12 11 10 13
24 23 21 19 19 20 19 17 15 13 11 9 8 8 8 8 6 4 4 5 4 2 2 3 4 5 6 7 8 8 7 7 8 9 9 10 11 12 12 13 14 14 13 13 15 17 17 17 19 20 20 20 18 17 17 11 4 9 14 13 11 12 13
23 21 19 18 18 19 17 15 13 11 9 8 7 7 7 6 5 4 5 6 4 2 2 3 4 4 4 5 6 7 7 7 7 9 9 10 10 11 12 14 15 16 16 16 16 17 18 18 20 22 21 21 19 14 14 14 7 8 14 13 11 12 13
22 20 17 16 16 16 13 12 11 9 8 7 7 7 7 7 6 5 6 7 5 2 2 4 3 3 4 4 5 6 6 6 7 9 11 11 10 10 10 12 14 17 18 18 18 19 18 18 22 24 22 21 20 15 12 12 8 8 13 14 12 12 13
20 17 16 14 13 12 11 10 9 8 7 7 7 7 7 7 6 5 6 7 6 4 2 3 4 3 3 4 5 6 6 7 8 10 12 12 10 9 8 9 11 15 19 20 20 20 19 19 22 24 23 21 20 17 14 11 7 8 13 16 14 14 14
19 16 15 13 11 10 9 8 7 7 7 7 7 7 7 6 6 5 6 7 7 5 3 3 3 3 3 4 5 5 6 8 9 10 12 11 9 8 7 6 6 9 15 19 21 22 20 21 23 24 23 22 21 20 17 14 11 9 12 16 16 15 15
19 17 15 13 11 10 9 7 7 7 8 7 7 6 6 6 7 6 6 7 8 6 4 3 2 3 4 4 5 4 5 8 9 10 10 9 8 7 7 7 6 6 9 13 18 22 22 22 23 23 23 23 22 22 20 18 15 12 11 14 17 17 16
18 17 15 13 12 10 8 7 7 8 8 6 5 5 6 6 6 6 7 7 7 7 6 4 3 3 4 5 5 5 5 7 9 9 9 8 8 8 8 9 9 9 9 10 13 17 19 21 22 22 23 23 23 23 22 20 18 15 12 12 15 18 17
18 16 14 14 13 11 8 7 8 8 7 5 5 5 5 5 5 6 6 6 7 7 6 6 5 4 5 5 6 6 7 8 9 10 9 8 8 9 10 10 11 11 11 11 12 13 15 18 19 20 21 21 22 23 22 21 20 18 15 13 13 17 17
14 14 13 13 13 11 9 8 8 8 6 5 6 6 6 5 4 5 5 6 6 6 6 6 5 5 5 6 7 7 8 9 10 10 9 8 8 9 10 11 11 11 11 11 12 13 14 16 17 17 17 16 17 19 20 20 20 20 18 15 14 16 17
8 9 10 11 11 10 10 9 8 7 5 5 6 6 6 5 4 4 4 5 6 6 6 6 5 5 5 6 7 8 8 9 10 10 9 9 9 9 9 9 9 9 10 10 11 12 14 15 16 16 15 14 13 14 15 18 20 20 18 16 16 16 17
8 7 8 9 10 10 9 9 8 6 5 5 6 7 7 6 6 6 5 5 6 6 6 6 5 5 5 5 6 6 6 7 9 11 10 9 9 9 9 9 8 8 9 9 10 11 12 14 14 14 14 14 13 12 14 17 19 19 17 17 17 16 16
11 10 9 9 8 8 8 7 7 6 5 5 6 8 9 8 7 7 7 7 7 6 6 6 6 5 5 5 4 5 5 5 7 10 10 10 10 10 10 10 10 10 10 9 10 10 11 11 12 13 13 13 13 14 15 17 18 18 17 18 18 17 17
10 8 7 6 6 6 6 6 5 5 5 6 7 9 10 10 9 9 8 8 7 7 7 7 7 7 6 6 6 6 7 7 7 9 11 12 11 11 11 12 13 12 12 12 12 12 12 12 12 12 12 12 13 14 16 17 18 18 18 18 18 17 18
10 8 6 6 5 5 5 4 4 4 4 5 6 8 9 10 9 8 8 8 7 7 8 9 9 9 9 8 8 9 9 10 10 10 11 13 14 13 13 13 14 15 15 15 14 14 14 13 13 13 12 12 13 14 15 16 17 17 18 17 17 18 19
15 13 11 10 9 8 7 7 7 5 5 4 4 5 5 5 4 3 4 4 4 4 4 6 8 9 10 10 11 11 11 12 12 12 13 14 15 16 16 16 17 18 18 18 17 17 16 16 16 15 15 14 15 15 16 17 18 18 17 17 18 19 20
21 18 16 15 14 13 12 11 10 9 7 6 5 6 5 4 3 3 2 3 3 2 2 1 3 5 6 8 9 11 12 13 14 15 16 16 17 18 19 19 20 21 22 21 21 21 20 20 19 19 18 18 18 19 19 19 19 20 20 19 19 20 20
25 23 22 21 21 20 19 17 15 12 10 9 8 8 8 6 5 4 4 5 5 4 4 2 1 2 3 5 6 8 10 11 13 14 16 18 19 20 21 22 23 23 24 24 24 24 24 24 23 22 22 22 21 22 21 21 21 21 21 21 20 20 20
26 25 23 23 24 24 22 21 19 16 14 13 12 11 11 10 9 8 7 6 5 5 5 4 3 3 4 5 6 7 9 10 11 12 14 15 17 19 21 22 23 24 25 25 25 25 25 25 25 25 25 25 25 25 24 23 22 22 22 21 19 17 18
23 22 21 21 22 22 21 20 19 17 16 15 14 14 13 13 12 11 10 9 8 7 7 6 5 4 5 5 6 8 9 10 11 12 14 14 15 16 17 19 20 22 24 26 27 26 25 24 24 25 26 26 27 26 24 23 22 20 18 16 14 14 17
19 18 18 18 18 18 18 18 17 17 17 16 15 15 13 12 12 12 12 11 10 9 9 8 6 5 5 6 6 7 9 10 11 13 15 16 16 16 17 17 18 19 21 24 25 26 26 26 25 25 25 26 27 26 24 23 20 17 15 15 19 25 28
19 18 17 16 14 14 14 13 13 13 14 15 15 15 14 13 12 12 11 11 9 9 8 8 8 7 6 6 6 7 8 9 10 11 13 15 17 18 18 19 19 19 21 21 21 22 24 26 26 24 24 25 25 25 24 24 22 22 22 24 27 28 27
18 17 16 14 12 11 11 11 11 11 10 10 10 11 13 13 13 12 12 11 10 9 9 8 8 8 8 8 8 8 9 10 11 11 13 14 16 17 18 19 20 20 21 21 21 20 22 24 25 23 23 25 26 26 27 29 29 27 25 24 22 20 19
17 16 15 13 10 9 8 8 9 9 9 10 10 10 11 12 11 11 11 10 9 9 9 9 9 8 9 9 10 10 10 11 12 14 15 16 17 18 18 19 20 20 21 21 21 21 21 23 24 23 23 25 26 25 28 30 29 25 21 19 18 18 19
16 15 14 11 10 9 8 6 6 6 7 7 8 7 8 9 9 9 9 9 9 9 9 9 9 9 9 10 10 11 11 11 12 14 16 17 19 19 20 20 20 20 21 20 21 22 21 22 22 22 23 24 23 22 23 25 25 23 21 19 19 20 22
15 15 14 12 11 9 8 6 6 6 6 6 7 7 8 8 8 9 10 10 10 10 10 10 10 11 11 11 11 12 12 13 13 14 16 18 19 20 21 21 22 22 22 22 21 21 21 21 22 22 22 23 22 22 23 25 24 23 22 22 22 24 25
16 15 14 13 12 11 9 8 7 7 6 6 7 7 8 9 10 11 12 13 13 13 14 14 13 13 13 13 13 13 14 14 15 16 17 18 19 20 21 22 23 23 24 25 24 23 22 22 22 22 21 21 22 23 26 27 25 24 23 24 26 28 29